When you browse on this site, cookies collect data to enhance your experience and personalize the content and advertising you see.
Visit our Privacy Policy to learn more. By continuing to use the site, you agree to this use of cookies and data.
  • In Hungary
  • List of Countries
  • For 7 days
  • Water Temperature
  • Satellite Maps
  • Weather Map
  • News
  • Weather Widgets
  • user-avatar
    Login

    Hourly Weather Ozgarish

    Today, 19 December, Wednesday

    Time Temperature Precipitation Wind Pressure Humidity
    00:00 +7°C° 0.1 mm 1 mps 731 mmHg 80%
    01:00 +7°C° 0.1 mm 1 mps 731 mmHg 80%
    02:00 +7°C° 0.1 mm 1 mps 730 mmHg 81%
    03:00 +6°C° 0.3 mm 0 mps 730 mmHg 82%
    04:00 +6°C° 0.3 mm 0 mps 730 mmHg 83%
    05:00 +6°C° 0.3 mm 0 mps 730 mmHg 85%
    06:00 +5°C° 0.4 mm 0 mps 730 mmHg 85%
    07:00 +5°C° 0.4 mm 0 mps 730 mmHg 86%
    08:00 +6°C° 0.4 mm 1 mps 730 mmHg 87%
    09:00 +7°C° 0.3 mm 1 mps 730 mmHg 86%
    10:00 +7°C° 0.3 mm 1 mps 730 mmHg 84%
    11:00 +7°C° 0.3 mm 1 mps 730 mmHg 83%
    12:00 +7°C° 0.3 mm 1 mps 731 mmHg 84%
    13:00 +8°C° 0.3 mm 1 mps 731 mmHg 84%
    14:00 +8°C° 0.3 mm 1 mps 731 mmHg 84%
    15:00 +8°C° 0.3 mm 1 mps 731 mmHg 85%
    16:00 +8°C° 0.3 mm 1 mps 732 mmHg 87%
    17:00 +8°C° 0.3 mm 1 mps 732 mmHg 89%
    18:00 +7°C° 0.4 mm 2 mps 733 mmHg 88%
    19:00 +7°C° 0.4 mm 2 mps 733 mmHg 88%
    20:00 +7°C° 0.4 mm 2 mps 734 mmHg 87%
    21:00 +5°C° 0.3 mm 3 mps 734 mmHg 86%
    22:00 +5°C° 0.3 mm 3 mps 735 mmHg 84%
    23:00 +5°C° 0.3 mm 3 mps 735 mmHg 82%

    Tomorrow, 20 December, Thursday

    Time Temperature Precipitation Wind Pressure Humidity
    00:00 +5°C° 0.2 mm 3 mps 736 mmHg 81%
    01:00 +5°C° 0.2 mm 3 mps 736 mmHg 80%
    02:00 +5°C° 0.2 mm 3 mps 736 mmHg 78%
    03:00 +5°C° 0.2 mm 3 mps 737 mmHg 78%
    04:00 +4°C° 0.2 mm 3 mps 737 mmHg 78%
    05:00 +4°C° 0.2 mm 3 mps 737 mmHg 78%
    06:00 +4°C° 0.2 mm 3 mps 738 mmHg 78%
    07:00 +5°C° 0.2 mm 2 mps 738 mmHg 78%
    08:00 +5°C° 0.2 mm 2 mps 738 mmHg 78%
    09:00 +5°C° 0.2 mm 2 mps 739 mmHg 76%
    10:00 +5°C° 0.2 mm 2 mps 739 mmHg 74%
    11:00 +6°C° 0.2 mm 2 mps 739 mmHg 72%
    12:00 +6°C° 0.1 mm 2 mps 739 mmHg 71%
    13:00 +6°C° 0.1 mm 2 mps 739 mmHg 69%
    14:00 +6°C° 0.1 mm 2 mps 738 mmHg 68%
    15:00 +6°C° 0 mm 2 mps 739 mmHg 70%
    16:00 +7°C° 0 mm 1 mps 739 mmHg 72%
    17:00 +6°C° 0 mm 1 mps 739 mmHg 74%
    18:00 +6°C° 0 mm 1 mps 740 mmHg 76%
    19:00 +4°C° 0 mm 2 mps 740 mmHg 78%
    20:00 +4°C° 0 mm 2 mps 740 mmHg 80%
    21:00 +3°C° 0 mm 2 mps 740 mmHg 80%
    22:00 +3°C° 0 mm 2 mps 740 mmHg 80%
    23:00 +3°C° 0 mm 2 mps 740 mmHg 80%

    Day after tomorrow, 21 December, Friday

    Time Temperature Precipitation Wind Pressure Humidity
    00:00 +3°C° 0 mm 2 mps 740 mmHg 78%
    01:00 +3°C° 0 mm 2 mps 740 mmHg 75%
    02:00 +3°C° 0 mm 2 mps 740 mmHg 73%
    03:00 +3°C° 0 mm 2 mps 740 mmHg 71%
    04:00 +2°C° 0 mm 2 mps 739 mmHg 69%
    05:00 +2°C° 0 mm 2 mps 739 mmHg 67%
    06:00 +2°C° 0 mm 2 mps 739 mmHg 66%
    07:00 +2°C° 0 mm 2 mps 739 mmHg 65%
    08:00 +2°C° 0 mm 2 mps 738 mmHg 64%
    09:00 +3°C° 0 mm 2 mps 737 mmHg 58%
    10:00 +5°C° 0 mm 2 mps 736 mmHg 52%
    11:00 +6°C° 0 mm 2 mps 735 mmHg 46%
    12:00 +7°C° 0 mm 2 mps 735 mmHg 43%
    13:00 +9°C° 0 mm 1 mps 734 mmHg 40%
    14:00 +10°C° 0 mm 1 mps 733 mmHg 37%
    15:00 +9°C° 0 mm 1 mps 733 mmHg 41%
    16:00 +8°C° 0 mm 1 mps 733 mmHg 44%
    17:00 +7°C° 0 mm 1 mps 733 mmHg 48%
    18:00 +7°C° 0 mm 1 mps 733 mmHg 48%
    19:00 +6°C° 0 mm 1 mps 733 mmHg 48%
    20:00 +6°C° 0 mm 1 mps 733 mmHg 48%
    21:00 +6°C° 0 mm 1 mps 732 mmHg 49%
    22:00 +6°C° 0 mm 1 mps 731 mmHg 50%
    23:00 +6°C° 0 mm 1 mps 731 mmHg 51%

    22 December, Saturday

    Time Temperature Precipitation Wind Pressure Humidity
    00:00 +6°C° 0 mm 1 mps 731 mmHg 52%
    01:00 +6°C° 0 mm 1 mps 730 mmHg 53%
    02:00 +4°C° 0 mm 0 mps 730 mmHg 54%
    03:00 +4°C° 0 mm 0 mps 730 mmHg 55%
    04:00 +4°C° 0 mm 0 mps 729 mmHg 56%
    05:00 +4°C° 0 mm 0 mps 729 mmHg 56%
    06:00 +4°C° 0 mm 0 mps 729 mmHg 56%
    07:00 +4°C° 0 mm 0 mps 729 mmHg 56%
    08:00 +4°C° 0 mm 0 mps 729 mmHg 56%
    09:00 +5°C° 0 mm 0 mps 729 mmHg 52%
    10:00 +7°C° 0 mm 0 mps 729 mmHg 48%
    11:00 +8°C° 0 mm 0 mps 729 mmHg 43%
    12:00 +9°C° 0 mm 1 mps 729 mmHg 42%
    13:00 +10°C° 0 mm 1 mps 729 mmHg 40%
    14:00 +10°C° 0 mm 1 mps 729 mmHg 38%
    15:00 +10°C° 0 mm 1 mps 729 mmHg 40%
    16:00 +9°C° 0 mm 1 mps 729 mmHg 42%
    17:00 +8°C° 0 mm 1 mps 730 mmHg 45%
    18:00 +8°C° 0 mm 1 mps 730 mmHg 45%
    19:00 +8°C° 0 mm 1 mps 730 mmHg 45%
    20:00 +7°C° 0 mm 0 mps 731 mmHg 46%
    21:00 +6°C° 0 mm 0 mps 731 mmHg 47%
    22:00 +7°C° 0 mm 1 mps 731 mmHg 48%
    23:00 +7°C° 0 mm 1 mps 731 mmHg 49%

    23 December, Sunday

    Time Temperature Precipitation Wind Pressure Humidity
    00:00 +7°C° 0 mm 1 mps 730 mmHg 49%
    01:00 +6°C° 0 mm 0 mps 730 mmHg 50%
    02:00 +5°C° 0 mm 0 mps 730 mmHg 51%
    03:00 +5°C° 0 mm 0 mps 730 mmHg 52%
    04:00 +5°C° 0 mm 0 mps 730 mmHg 52%
    05:00 +5°C° 0 mm 0 mps 730 mmHg 53%
    06:00 +5°C° 0 mm 0 mps 731 mmHg 53%
    07:00 +5°C° 0 mm 0 mps 731 mmHg 54%
    08:00 +4°C° 0 mm 0 mps 731 mmHg 55%
    09:00 +5°C° 0 mm 0 mps 731 mmHg 52%
    10:00 +6°C° 0 mm 0 mps 731 mmHg 49%
    11:00 +7°C° 0 mm 0 mps 731 mmHg 47%
    12:00 +9°C° 0 mm 1 mps 731 mmHg 46%
    13:00 +9°C° 0 mm 1 mps 731 mmHg 45%
    14:00 +10°C° 0 mm 1 mps 731 mmHg 45%
    15:00 +9°C° 0 mm 1 mps 731 mmHg 48%
    16:00 +9°C° 0 mm 1 mps 732 mmHg 50%
    17:00 +8°C° 0 mm 1 mps 732 mmHg 53%
    18:00 +8°C° 0 mm 1 mps 732 mmHg 54%
    19:00 +6°C° 0 mm 0 mps 732 mmHg 55%
    20:00 +6°C° 0 mm 0 mps 733 mmHg 56%
    21:00 +6°C° 0 mm 0 mps 733 mmHg 58%
    22:00 +5°C° 0 mm 0 mps 733 mmHg 59%
    23:00 +5°C° 0 mm 0 mps 733 mmHg 60%

    24 December, Monday

    Time Temperature Precipitation Wind Pressure Humidity
    00:00 +5°C° 0 mm 0 mps 733 mmHg 61%
    01:00 +5°C° 0 mm 0 mps 733 mmHg 62%
    02:00 +4°C° 0 mm 0 mps 733 mmHg 63%
    03:00 +4°C° 0 mm 0 mps 733 mmHg 64%
    04:00 +4°C° 0 mm 0 mps 733 mmHg 65%
    05:00 +4°C° 0 mm 0 mps 733 mmHg 66%
    06:00 +4°C° 0 mm 0 mps 733 mmHg 66%
    07:00 +3°C° 0 mm 0 mps 733 mmHg 67%
    08:00 +3°C° 0 mm 0 mps 734 mmHg 68%
    09:00 +4°C° 0 mm 0 mps 733 mmHg 63%
    10:00 +7°C° 0 mm 1 mps 733 mmHg 59%
    11:00 +8°C° 0 mm 1 mps 733 mmHg 55%
    12:00 +8°C° 0 mm 1 mps 732 mmHg 53%
    13:00 +9°C° 0 mm 1 mps 732 mmHg 51%
    14:00 +9°C° 0 mm 1 mps 732 mmHg 50%
    15:00 +9°C° 0 mm 1 mps 732 mmHg 53%
    16:00 +8°C° 0 mm 1 mps 732 mmHg 56%
    17:00 +8°C° 0 mm 1 mps 732 mmHg 59%
    18:00 +7°C° 0 mm 1 mps 732 mmHg 61%
    19:00 +7°C° 0 mm 1 mps 732 mmHg 62%
    20:00 +6°C° 0 mm 0 mps 733 mmHg 64%
    21:00 +6°C° 0 mm 0 mps 733 mmHg 65%
    22:00 +5°C° 0 mm 0 mps 733 mmHg 65%
    23:00 +5°C° 0 mm 0 mps 733 mmHg 66%
    Show more